AUA603 LOWW-LDZA

Flight info

Callsign AUA603
Flight time 0h 33m
Altitude 23000
Route STEIN DCT NOHAT DCT NEKIN
Aircraft E195/M-SDE3GILORVW/S

Departure

Time 2026-05-04 16:00
Airport Vienna International Airport (LOWW)

Arrival

Time 2026-05-04 16:34
Airport Zagreb Franjo Tuđman International Airport (LDZA)
Time Latitude Longitude Altitude Speed Heading
2026-05-04 15:43 48.11754 16.57180 607 ft 0 kts 205°
2026-05-04 15:54 48.11753 16.57180 607 ft 0 kts 205°
2026-05-04 15:54 48.11728 16.57163 607 ft 7 kts 204°
2026-05-04 15:55 48.11680 16.57149 607 ft 5 kts 144°
2026-05-04 15:55 48.11654 16.57217 607 ft 10 kts 114°
2026-05-04 15:55 48.11613 16.57340 607 ft 14 kts 122°
2026-05-04 15:55 48.11585 16.57429 607 ft 8 kts 114°
2026-05-04 15:56 48.11579 16.57521 607 ft 9 kts 47°
2026-05-04 15:56 48.11639 16.57541 607 ft 8 kts 348°
2026-05-04 15:56 48.11704 16.57514 607 ft 10 kts 342°
2026-05-04 15:56 48.11780 16.57483 607 ft 10 kts 348°
2026-05-04 15:57 48.11832 16.57539 607 ft 9 kts 75°
2026-05-04 15:57 48.11852 16.57628 607 ft 8 kts 73°
2026-05-04 15:57 48.11854 16.57638 607 ft 0 kts 75°
2026-05-04 15:58 48.11858 16.57664 607 ft 5 kts 81°
2026-05-04 15:58 48.11855 16.57758 607 ft 12 kts 104°
2026-05-04 15:58 48.11806 16.57882 607 ft 14 kts 143°
2026-05-04 15:58 48.11789 16.57895 607 ft 0 kts 161°
2026-05-04 15:59 48.11785 16.57896 607 ft 0 kts 161°
2026-05-04 15:59 48.11783 16.57898 607 ft 0 kts 161°
2026-05-04 15:59 48.11779 16.57900 607 ft 0 kts 161°
2026-05-04 15:59 48.11773 16.57903 607 ft 6 kts 161°
2026-05-04 16:00 48.11459 16.58042 608 ft 90 kts 165°
2026-05-04 16:00 48.10616 16.58387 645 ft 153 kts 163°
2026-05-04 16:00 48.09571 16.58836 1276 ft 161 kts 162°
2026-05-04 16:00 48.08493 16.59318 2086 ft 165 kts 162°
2026-05-04 16:01 48.07429 16.59834 2565 ft 165 kts 161°
2026-05-04 16:01 48.06266 16.60361 2698 ft 183 kts 167°
2026-05-04 16:01 48.05014 16.60811 3079 ft 185 kts 164°
2026-05-04 16:01 48.03749 16.61316 3344 ft 196 kts 164°
2026-05-04 16:02 48.02427 16.61856 3710 ft 199 kts 165°
2026-05-04 16:02 48.01049 16.62443 3940 ft 210 kts 165°
2026-05-04 16:02 47.98101 16.63324 4447 ft 229 kts 181°
2026-05-04 16:03 47.96478 16.63257 4733 ft 239 kts 181°
2026-05-04 16:03 47.94746 16.63171 4909 ft 255 kts 182°
2026-05-04 16:03 47.92956 16.63070 5346 ft 260 kts 182°
2026-05-04 16:03 47.91142 16.62962 5871 ft 260 kts 182°
2026-05-04 16:04 47.89312 16.62850 6312 ft 264 kts 183°
2026-05-04 16:04 47.85635 16.62634 7124 ft 270 kts 183°
2026-05-04 16:04 47.83711 16.62507 7868 ft 281 kts 183°
2026-05-04 16:05 47.81800 16.62386 8993 ft 277 kts 183°
2026-05-04 16:05 47.79852 16.62263 9867 ft 282 kts 183°
2026-05-04 16:05 47.75911 16.62017 11529 ft 290 kts 184°
2026-05-04 16:06 47.73872 16.61890 12219 ft 298 kts 184°
2026-05-04 16:06 47.68193 16.61538 14082 ft 313 kts 184°
2026-05-04 16:07 47.65243 16.61355 14986 ft 319 kts 184°
2026-05-04 16:07 47.58471 16.60937 16889 ft 331 kts 184°
2026-05-04 16:08 47.56174 16.60795 17483 ft 335 kts 184°
2026-05-04 16:08 47.49018 16.60355 19158 ft 346 kts 184°
2026-05-04 16:09 47.44182 16.60058 20207 ft 352 kts 184°
2026-05-04 16:09 47.39220 16.60141 21170 ft 359 kts 180°
2026-05-04 16:10 47.34190 16.60347 22080 ft 365 kts 180°
2026-05-04 16:11 47.26514 16.60680 22958 ft 364 kts 180°
2026-05-04 16:11 47.24024 16.60789 22975 ft 354 kts 180°
2026-05-04 16:12 47.16622 16.61109 22992 ft 353 kts 180°
2026-05-04 16:12 47.09220 16.61430 22992 ft 354 kts 180°
2026-05-04 16:13 47.04295 16.61643 22992 ft 354 kts 180°
2026-05-04 16:13 46.99322 16.61857 22993 ft 356 kts 180°
2026-05-04 16:14 46.94364 16.62070 22974 ft 357 kts 180°
2026-05-04 16:14 46.89419 16.62283 22810 ft 354 kts 180°
2026-05-04 16:15 46.81967 16.62605 22742 ft 357 kts 179°
2026-05-04 16:16 46.76770 16.63479 20492 ft 389 kts 174°
2026-05-04 16:16 46.68914 16.64975 18932 ft 366 kts 174°
2026-05-04 16:17 46.64011 16.65912 18121 ft 348 kts 174°
2026-05-04 16:18 46.57033 16.67241 17010 ft 323 kts 174°
2026-05-04 16:18 46.54838 16.67658 16659 ft 316 kts 174°
2026-05-04 16:19 46.48407 16.68878 15653 ft 308 kts 174°
2026-05-04 16:19 46.44149 16.69685 14968 ft 307 kts 174°
2026-05-04 16:20 46.38266 16.67652 13948 ft 300 kts 213°
2026-05-04 16:20 46.34853 16.64317 13280 ft 296 kts 214°
2026-05-04 16:21 46.29841 16.59244 12307 ft 291 kts 214°
2026-05-04 16:22 46.26530 16.55884 11663 ft 288 kts 215°
2026-05-04 16:22 46.21650 16.50937 10803 ft 283 kts 215°
2026-05-04 16:23 46.16805 16.46037 9881 ft 281 kts 216°
2026-05-04 16:24 46.10562 16.39738 8659 ft 264 kts 216°
2026-05-04 16:25 46.07584 16.36740 8105 ft 261 kts 216°
2026-05-04 16:26 46.01176 16.33716 6912 ft 264 kts 148°
2026-05-04 16:26 45.96673 16.38099 5748 ft 255 kts 179°
2026-05-04 16:27 45.93742 16.36182 5315 ft 226 kts 218°
2026-05-04 16:28 45.90510 16.31646 4379 ft 206 kts 226°
2026-05-04 16:28 45.87703 16.27380 3589 ft 184 kts 225°
2026-05-04 16:29 45.84638 16.22681 3097 ft 149 kts 225°
2026-05-04 16:30 45.82569 16.19511 2496 ft 139 kts 225°
2026-05-04 16:31 45.81256 16.17504 2126 ft 136 kts 225°
2026-05-04 16:31 45.79295 16.14510 1568 ft 139 kts 226°
2026-05-04 16:32 45.77298 16.11515 960 ft 137 kts 225°
2026-05-04 16:33 45.76006 16.09518 639 ft 137 kts 226°
2026-05-04 16:33 45.74721 16.07545 361 ft 124 kts 227°
2026-05-04 16:34 45.73880 16.06248 361 ft 37 kts 227°
2026-05-04 16:34 45.73737 16.06033 360 ft 30 kts 226°
2026-05-04 16:35 45.73475 16.05627 360 ft 20 kts 218°
2026-05-04 16:35 45.73333 16.05800 360 ft 11 kts 45°
2026-05-04 16:36 45.73399 16.05911 360 ft 18 kts 52°
2026-05-04 16:36 45.73595 16.06208 361 ft 20 kts 44°
2026-05-04 16:37 45.73787 16.06504 360 ft 19 kts 47°
2026-05-04 16:37 45.73881 16.06645 360 ft 19 kts 47°
2026-05-04 16:37 45.74073 16.06937 360 ft 20 kts 47°
2026-05-04 16:38 45.74191 16.07244 360 ft 18 kts 137°
2026-05-04 16:39 45.74115 16.07554 360 ft 12 kts 43°
2026-05-04 16:39 45.74258 16.07771 360 ft 3 kts 57°
2026-05-04 16:40 45.74231 16.07840 360 ft 6 kts 136°
2026-05-04 16:40 45.74210 16.07870 360 ft 0 kts 136°